Other Surface Observations
Issued by NWS Charleston, SC

Home | Current Version | Previous Version | Text Only | Print | Product List | Glossary On
Versions: 1 2 3 4 5 6 7 8 9 10 11 12 13 14 15 16 17 18 19 20 21 22 23 24 25 26 27 28 29 30 31 32 33 34 35 36 37 38 39 40 41 42 43 44 45 46 47 48 49 50
000
SXUS52 KCHS 292212
OSOCHS

MARINE OBSERVATIONS
NATIONAL WEATHER SERVICE CHARLESTON SC
600 PM EDT WED MAR 29 2017

...DOWNTOWN CHARLESTON AND HARBOR...

CITY           SKY/WX    TMP DP  RH WIND       PRES   REMARKS
WATERFRONT PRK   N/A     67  61  80 SE10      29.99R

...LAKE MOULTRIE...

CITY           SKY/WX    TMP DP  RH WIND       PRES   REMARKS
PINOPOLIS        N/A     81  52  36 VRB3      29.92R

...LAKE AND SUPPLEMENTAL COASTAL OBSERVATIONS...

STATION/POSITION TIME  TEMP    WIND        PRES    WAVE   SWELL
                       AIR SEA DIR/SP/G            HT/PER HT/PER/DIR
                 (UTC) (F)     (DEG/KT/KT) (MB)    (FT/S) (FT/S/D)
FORT PULASKI     2148   67 67   90/  8/  8 1015.7F
SAPELO ISLAND    2100   76     110/  5     1016.0
WINYAH BAY       NOT AVBL
LAKE MURRAY      2120   77     180/  6/  6 1015.2
ACE BASIN NERRS  2045   78     130/  3     1015.0


...C-MAN AND BUOY OBSERVATIONS...

STATION/POSITION TIME  TEMP    WIND        PRES    WAVE   SWELL
                       AIR SEA DIR/SP/G            HT/PER HT/PER/DIR
                 (UTC) (F)     (DEG/KT/KT) (MB)    (FT/S) (FT/S/D)
BUOY 41004       2150   71 71   60/ 12/ 16 1015.5R   4/10   3/100/10
BUOY 41008       2050   66 67   60/  8/ 10 1015.7    3/10   2/ 90/10
FOLLY BEACH CMAN 2200   66      90/  7/  8 1016.8S
CAPERS NS BUOY   NOT AVBL
FRIPP NS BUOY    2108   65 64  120/  8/ 10 1015.5F
5E ST. MARYS GA  2200      69                N/A     3/10   2/120/11


STATION/POSITION TIME  TEMP    WIND        PRES    WAVE   SWELL
                       AIR SEA DIR/SP/G            HT/PER HT/PER/DIR
                 (UTC) (F)     (DEG/KT/KT) (MB)    (FT/S) (FT/S/D)
FRYING PAN BUOY  2150   66 74   60/ 17/ 21 1016.9R   5/10   3/150/10
BUOY 41025       2150   57 74   20/ 19/ 23 1018.3    6/10   3/150/10
CAPE LOOKOUT NC  2200   60      40/ 16/ 17 1018.1R
BUOY 41002       2150   73 73   20/ 12/ 14 1015.2R   6/10   5/110/10
BUOY 41010       NOT AVBL
ST AUGUSTINE FL  2200   71 71  140/  6/  6 1016.2F

$$




USA.gov is the U.S. government's official web portal to all federal, state and local government web resources and services.